"Pseudo-MPEC" for P12oAWX

Created 2026 Jul 26 18:35:05 UT using Find_Orb

Click here for an explanation of pseudo-MPECs

 
 Astrometry: 
     P12oAWX 0C2026 07 08.56186922 15 30.046-10 04 04.78   ~7OGo 21.63wXNEOCPF51
     P12oAWX 0C2026 07 08.57424022 15 30.400-10 03 55.92   ~7OGo 21.72wXNEOCPF51
     P12oAWX 0C2026 07 08.58662222 15 30.738-10 03 46.80   ~7OGo 21.56wXNEOCPF51
     P12oAWX*0C2026 07 24.49312022 19 13.559-07 01 07.69   ~7OFZ 21.20wXNEOCPF51
     P12oAWX 0C2026 07 24.50500822 19 13.431-07 01 00.08   ~7OFZ 21.23wXNEOCPF51

Station data:
(F51) Pan-STARRS 1, Haleakala  (N20.707234 W156.255910)  US/Hawaii.
   Observers J. Herman, T. Lowe, P. Minguez, A. Schultz, I. Smith. Measurers
   K. Chambers, T. de Boer, J. Fairlamb, H. Gao, M. Huber, C.-C. Lin, E.
   Magnier, Y. Ramanjooloo, R. Wainscoat, R. Weryk. 1.8-m Ritchey-Chrétien +
   CCD.

Orbital elements:  P12oAWX
   Perihelion 2026 Sep 29.755240 +/- 45.2 TT = 18:07:32.6 (JD 2461313.255240)
Epoch 2026 Jul 24.0 TT = JDT 2461245.5   Earth MOID: 0.5449      AutoNEOCP
M 340.306751075 +/- 20              (J2000 ecliptic)
n   0.290652782 +/- 0.121           Peri.   49.373794 +/- 30
a   2.257111735 +/- 0.624           Node   303.373418 +/- 2.7
e   0.31772996 +/- 0.111            Incl.    7.033999 +/- 1.4
P   3.39101                H 19.79  G  0.15   U 11.3  SR
q 1.539959696 +/- 0.163    Q 2.974263774 +/- 1.15
From 5 observations 2026 July 8-24; mean residual 0".22
Residuals in arcseconds: 
260708 F51  .29-  .27-    260708 F51  .21+  .35+    260724 F51  .20-  .17-    
260708 F51  .08+  .08-    260724 F51  .20+  .17+    

Ephemerides (geocentric):
Date (UTC) HH   RA             Dec           delta  r     elong  mag " sig PA
---- --------  ------------   ------------  ------ ------ -----  --- --------
2026 07 26 19  22 18 59.631   -06 35 30.59  .66178 1.6193 149.1 20.9  109 115
2026 07 26 20  22 18 59.275   -06 35 03.01  .66153 1.6192 149.1 20.9  111 115
2026 07 26 21  22 18 58.915   -06 34 35.44  .66129 1.6191 149.1 20.9  113 115
2026 07 26 22  22 18 58.551   -06 34 07.87  .66104 1.6190 149.2 20.9  116 115
2026 07 26 23  22 18 58.183   -06 33 40.32  .66080 1.6189 149.2 20.9  118 115
2026 07 27 00  22 18 57.812   -06 33 12.77  .66056 1.6188 149.2 20.9  120 115
2026 07 27 01  22 18 57.437   -06 32 45.22  .66031 1.6187 149.3 20.9  122 115
2026 07 27 02  22 18 57.058   -06 32 17.69  .66007 1.6186 149.3 20.9  125 115
2026 07 27 03  22 18 56.675   -06 31 50.16  .65983 1.6185 149.4 20.9  127 115
2026 07 27 04  22 18 56.288   -06 31 22.63  .65959 1.6184 149.4 20.9  129 115
2026 07 27 05  22 18 55.898   -06 30 55.12  .65935 1.6183 149.4 20.9  132 115
2026 07 27 06  22 18 55.504   -06 30 27.61  .65910 1.6182 149.5 20.9  134 115
2026 07 27 07  22 18 55.106   -06 30 00.11  .65886 1.6181 149.5 20.9  136 115
2026 07 27 08  22 18 54.704   -06 29 32.61  .65862 1.6180 149.5 20.9  139 115
2026 07 27 09  22 18 54.298   -06 29 05.12  .65838 1.6179 149.6 20.9  141 115
2026 07 27 10  22 18 53.889   -06 28 37.64  .65814 1.6179 149.6 20.9  143 115
2026 07 27 11  22 18 53.476   -06 28 10.17  .65790 1.6178 149.7 20.9  146 115
2026 07 27 12  22 18 53.059   -06 27 42.70  .65766 1.6177 149.7 20.9  148 115
2026 07 27 13  22 18 52.638   -06 27 15.24  .65742 1.6176 149.7 20.9  150 115
2026 07 27 14  22 18 52.214   -06 26 47.79  .65718 1.6175 149.8 20.9  153 115
2026 07 27 15  22 18 51.785   -06 26 20.34  .65694 1.6174 149.8 20.9  155 115
2026 07 27 16  22 18 51.353   -06 25 52.90  .65670 1.6173 149.8 20.9  158 115
2026 07 27 17  22 18 50.917   -06 25 25.47  .65646 1.6172 149.9 20.9  160 115
2026 07 27 18  22 18 50.478   -06 24 58.05  .65622 1.6171 149.9 20.9  163 115
2026 07 27 19  22 18 50.035   -06 24 30.63  .65598 1.6170 150.0 20.9  165 115
2026 07 27 20  22 18 49.587   -06 24 03.22  .65575 1.6169 150.0 20.9  167 115
2026 07 27 21  22 18 49.136   -06 23 35.82  .65551 1.6168 150.0 20.9  170 115
2026 07 27 22  22 18 48.682   -06 23 08.42  .65527 1.6167 150.1 20.9  172 115
2026 07 27 23  22 18 48.223   -06 22 41.04  .65503 1.6166 150.1 20.9  175 115
2026 07 28 00  22 18 47.761   -06 22 13.66  .65480 1.6165 150.1 20.9  177 115
2026 07 28 01  22 18 47.295   -06 21 46.28  .65456 1.6164 150.2 20.9  180 115
2026 07 28 02  22 18 46.825   -06 21 18.92  .65432 1.6163 150.2 20.8  182 115
2026 07 28 03  22 18 46.351   -06 20 51.56  .65409 1.6162 150.3 20.8  185 115
2026 07 28 04  22 18 45.874   -06 20 24.21  .65385 1.6161 150.3 20.8  187 115
2026 07 28 05  22 18 45.393   -06 19 56.86  .65361 1.6160 150.3 20.8  190 115
2026 07 28 06  22 18 44.908   -06 19 29.53  .65338 1.6159 150.4 20.8  192 115
2026 07 28 07  22 18 44.419   -06 19 02.20  .65314 1.6159 150.4 20.8  195 115
2026 07 28 08  22 18 43.927   -06 18 34.88  .65291 1.6158 150.4 20.8  198 115
2026 07 28 09  22 18 43.431   -06 18 07.56  .65267 1.6157 150.5 20.8  200 115
2026 07 28 10  22 18 42.931   -06 17 40.26  .65244 1.6156 150.5 20.8  203 115
2026 07 28 11  22 18 42.427   -06 17 12.96  .65220 1.6155 150.6 20.8  205 115
2026 07 28 12  22 18 41.920   -06 16 45.66  .65197 1.6154 150.6 20.8  208 115
2026 07 28 13  22 18 41.409   -06 16 18.38  .65174 1.6153 150.6 20.8  211 115
2026 07 28 14  22 18 40.894   -06 15 51.10  .65150 1.6152 150.7 20.8  213 115
2026 07 28 15  22 18 40.375   -06 15 23.84  .65127 1.6151 150.7 20.8  216 115
2026 07 28 16  22 18 39.852   -06 14 56.57  .65104 1.6150 150.7 20.8  218 115
2026 07 28 17  22 18 39.326   -06 14 29.32  .65080 1.6149 150.8 20.8  221 115
2026 07 28 18  22 18 38.796   -06 14 02.07  .65057 1.6148 150.8 20.8  224 115